Location: Unspecified
(0.0000°N, 0.0000°E)
Time: 02:41:20
(UTC+02:00)

Cosmos 1515 Rocket - Visible Passes

Search period start: 26 July 2016 00:00
Search period end: 05 August 2016 00:00
Orbit: 606 x 631 km, 82.5° (Epoch: 24 July)

Date Brightness Start Highest point End Pass type
(mag) Time Alt. Az. Time Alt. Az. Time Alt. Az.
26 Jul 4.3 06:50:43 10° S 06:55:05 54° E 06:59:25 10° NNE visible
27 Jul 3.5 07:07:51 10° SSW 07:12:16 64° W 07:16:39 10° N visible
28 Jul 6.7 05:50:31 10° ESE 05:51:52 11° E 05:53:11 10° ENE visible
28 Jul 4.5 07:25:39 10° SW 07:29:26 27° W 07:33:12 10° NNW visible
29 Jul 5.7 06:05:31 11° SSE 06:09:03 25° E 06:12:42 10° NE visible
30 Jul 4.1 06:23:51 25° SSE 06:26:14 57° E 06:30:34 10° NNE visible
31 Jul 3.5 06:42:08 41° SW 06:43:24 60° W 06:47:46 10° N visible
01 Aug 6.6 05:23:08 12° E 05:23:08 12° E 05:24:39 10° ENE visible
01 Aug 4.5 07:00:21 26° W 07:00:35 26° W 07:04:15 10° NNW visible
02 Aug 5.8 05:41:17 24° ENE 05:41:17 24° ENE 05:43:54 10° NE visible
02 Aug 5.6 07:18:30 11° WNW 07:18:30 11° WNW 07:19:15 10° WNW visible
03 Aug 5.1 05:59:23 30° NNE 05:59:23 30° NNE 06:01:43 10° NNE visible
04 Aug 5.4 06:17:25 20° NNW 06:17:25 20° NNW 06:18:52 10° N visible
